[[{"header":{"parameterUnit":"m.s-1","parameterCategory":2,"la1":30.2991,"la2":30.254,"lo1":-89.0895,"lo2":-89.0444,"dy":0.0017,"dx":0.0017,"nx":28,"ny":28,"refTime":"2025-04-25T03:00:00:Z","depth":"0","parameterNumber":2,"parameterNumberName":"U-component_of_CURRENTS"},"data":[0,0,0,0,0,0,0,0,0,0,0,0,0,0,0,0,0,0,0,0,0,0,0,0,0,0,0,0,0,0,0,0,0,0,0,0,0,0,0,0,0,0,0,0,0,0,0,0,0,0,0,0,0,0,0,0,0,0,0.2481,0.2481,0,0.2516,0.2516,0.2516,0.2497,0.2496,0.2496,0.2495,0.239,0.2388,0.2386,0,0,0,0,0,0,0,0,0,0,0,0,0,0.2367,0.2369,0.248,0.2481,0.2482,0.2516,0.2516,0.2516,0.2497,0.2496,0.2495,0.2495,0.2391,0.2388,0.2385,0,0,0,0,0,0,0,0,0,0,0,0,0,0.2406,0.237,0.248,0.2481,0.2482,0.2516,0.2516,0.2516,0.2497,0.2496,0.2495,0.2495,0.2392,0.2388,0.2385,0.2377,0,0,0.2374,0.2373,0,0,0,0,0,0,0,0,0.2404,0.2409,0.248,0.2481,0.2482,0.2506,0.2438,0.2465,0.2497,0.2485,0.2495,0.2494,0.242,0.2414,0.2416,0.2372,0.2368,0.2374,0.2372,0.237,0.2369,0,0,0,0,0,0,0,0.2401,0.2408,0.2489,0.2481,0.2482,0.247,0.2474,0.2443,0.2449,0.2486,0.2486,0.2499,0.2419,0.242,0.2414,0.2366,0.2374,0.2371,0.2369,0.2367,0.23,0.2301,0,0,0,0,0,0,0.2411,0.2406,0.2488,0.2491,0.2446,0.2473,0.2478,0.2494,0.2453,0.2448,0.25,0.2498,0.2426,0.2418,0.241,0.2394,0.237,0.2367,0.2365,0.23,0.23,0.2301,0,0,0,0,0,0,0.2408,0.2418,0.2487,0.2453,0.2461,0.2477,0.2495,0.2496,0.2499,0.2466,0.2457,0.2504,0.2426,0.2415,0.2389,0.2389,0.2365,0.2362,0.2299,0.23,0.23,0.2363,0,0,0,0,0,0,0.2405,0.2417,0.2427,0.2454,0.2464,0.2511,0.2496,0.2497,0.2511,0.2509,0.2466,0.2456,0.2424,0.2395,0.2385,0.2384,0.2359,0.2299,0.23,0.23,0.2361,0.2366,0.237,0,0,0,0,0,0.24,0.2416,0.2427,0.2437,0.2479,0.2512,0.2515,0.2519,0.2512,0.2518,0.2491,0.2457,0.2392,0.2392,0.2381,0.2379,0.2299,0.2299,0.23,0.2359,0.2365,0.237,0,0,0,0,0,0,0.2365,0.2417,0.2429,0.2458,0.2488,0.2511,0.2516,0.2525,0.2512,0.2504,0.2464,0.2452,0.2431,0.2398,0.24,0.2362,0.2338,0.2337,0.2387,0.2392,0.2397,0.2413,0.2356,0,0,0,0,0,0.2368,0.2391,0.2439,0.2458,0.2476,0.2498,0.251,0.2522,0.252,0.2515,0.2486,0.2452,0.2427,0.2405,0.2378,0.2355,0.2364,0.2345,0.235,0.2354,0.236,0.2378,0.2385,0.2303,0.2303,0.2303,0,0,0.2358,0.2389,0.2401,0.2452,0.247,0.2498,0.2501,0.2528,0.2538,0.2502,0.2489,0.247,0.2428,0.2408,0.2394,0.2377,0.2389,0.2355,0.2359,0.2363,0.238,0.2388,0.2395,0.2304,0.2304,0.2303,0,0,0.2351,0.238,0.2401,0.2433,0.2478,0.2496,0.2508,0.2539,0.2538,0.2537,0.2515,0.2504,0.2454,0.2436,0.2417,0.243,0.242,0.2413,0.2441,0.2458,0.2465,0.2472,0.2529,0.2539,0.2408,0.2408,0.2408,0,0.2339,0.2376,0.2409,0.2442,0.2465,0.2497,0.2524,0.2533,0.2548,0.2548,0.2535,0.2503,0.2469,0.2457,0.2463,0.2441,0.2464,0.2424,0.2467,0.2473,0.2478,0.2534,0.2546,0.2411,0.2411,0.241,0.241,0,0.2354,0.2386,0.2399,0.245,0.2477,0.2506,0.2539,0.2552,0.2554,0.2565,0.2563,0.2538,0.252,0.2507,0.2485,0.2504,0.2515,0.248,0.2457,0.2491,0.2548,0.2558,0.2415,0.2414,0.2413,0.2413,0,0,0.2323,0.2398,0.2402,0.2427,0.2488,0.251,0.2531,0.2563,0.2576,0.2584,0.2599,0.2572,0.2577,0.2557,0.2539,0.2549,0.2618,0.2534,0.2533,0.2602,0.2696,0.2773,0.2792,0.2592,0.2593,0.2594,0.2733,0,0.2326,0.2379,0.2416,0.2455,0.2487,0.2525,0.2539,0.2569,0.2587,0.2608,0.2606,0.261,0.259,0.259,0.2603,0.2614,0.2643,0.2586,0.2643,0.2645,0.2718,0.2805,0.2718,0.2839,0.2743,0.2745,0.2746,0,0.2326,0.2367,0.2408,0.2463,0.2479,0.2501,0.254,0.2562,0.2602,0.2619,0.2646,0.2653,0.2687,0.2653,0.2716,0.2684,0.2699,0.2707,0.2712,0.2766,0.2742,0.2781,0.2862,0.2744,0.2763,0.2761,0.276,0,0.2279,0.2353,0.2381,0.2405,0.2475,0.2487,0.2514,0.2557,0.2585,0.2636,0.2677,0.2708,0.2743,0.2763,0.2809,0.2761,0.2892,0.2819,0.291,0.2916,0.2845,0.2843,0.2823,0.2862,0.2861,0.2861,0.2861,0,0.2262,0.2283,0.2362,0.2378,0.2403,0.246,0.2484,0.252,0.2589,0.2629,0.2682,0.2738,0.277,0.285,0.2857,0.2963,0.294,0.2953,0.2963,0.2869,0.2868,0.2763,0.2717,0.2866,0.2865,0.2864,0.2863,0,0.2194,0.2251,0.2286,0.236,0.238,0.2392,0.247,0.2495,0.2576,0.2642,0.2667,0.2787,0.2908,0.2976,0.304,0.3049,0.3038,0.3141,0.3065,0.3064,0.3023,0.2985,0.2936,0.2842,0.326,0.3263,0.3265,0,0.2163,0.2178,0.2252,0.2271,0.2302,0.2342,0.2366,0.246,0.2504,0.2666,0.2698,0.2865,0.2973,0.3169,0.3225,0.3323,0.3154,0.3273,0.3153,0.3053,0.3015,0.2874,0.2785,0.3089,0.309,0.3091,0.3091,0,0.2102,0.2126,0.2155,0.22,0.2231,0.2267,0.2321,0.2366,0.2482,0.2577,0.2719,0.2836,0.3077,0.3171,0.3346,0.3367,0.3123,0.3292,0.3173,0.2897,0.2752,0.2655,0.2995,0.3097,0.3096,0.3096,0.3096,0.3095,0.2045,0.2042,0.2085,0.2113,0.2155,0.2184,0.2183,0.2275,0.236,0.2484,0.2657,0.2802,0.3016,0.3274,0.3301,0.3272,0.3214,0.3134,0.3108,0.2982,0.2848,0.3254,0.3374,0.3375,0.3376,0.3377,0.3377,0,0.1966,0.1974,0.2001,0.2032,0.2041,0.2091,0.2141,0.2138,0.2204,0.238,0.2516,0.2745,0.2903,0.3042,0.3154,0.3065,0.2883,0.2958,0.2671,0.2598,0.2944,0.2891,0.2929,0.2929,0.2929,0.2929,0.2929,0.293,0.1928,0.1909,0.192,0.1909,0.193,0.1903,0.1907,0.1936,0.2029,0.2173,0.2301,0.2469,0.2747,0.295,0.2913,0.2839,0.2557,0.2506,0.2449,0.263,0.264,0.2649,0.2583,0.2556,0.2556,0.1958,0.1954,0.1951]},{"header":{"parameterUnit":"m.s-1","parameterCategory":2,"la1":30.2991,"la2":30.254,"lo1":-89.0895,"lo2":-89.0444,"dy":0.0017,"dx":0.0017,"nx":28,"ny":28,"refTime":"2025-04-25T03:00:00:Z","depth":"0","parameterNumber":3,"parameterNumberName":"V-component_of_CURRENTS"},"data":[0,0,0,0,0,0,0,0,0,0,0,0,0,0,0,0,0,0,0,0,0,0,0,0,0,0,0,0,0,0,0,0,0,0,0,0,0,0,0,0,0,0,0,0,0,0,0,0,0,0,0,0,0,0,0,0,0,0,0.0073,0.0072,0,-0.0026,-0.0027,-0.0028,-0.0082,-0.0082,-0.0082,-0.0082,-0.0146,-0.0148,-0.0149,0,0,0,0,0,0,0,0,0,0,0,0,0,0.0177,0.0175,0.0073,0.0072,0.0071,-0.0026,-0.0027,-0.0029,-0.0082,-0.0082,-0.0082,-0.0082,-0.0146,-0.0148,-0.015,0,0,0,0,0,0,0,0,0,0,0,0,0,0.0109,0.0175,0.0073,0.0033,0.0029,-0.0025,-0.0027,-0.0029,-0.0082,-0.0082,-0.0082,-0.0082,-0.0145,-0.0147,-0.015,-0.0166,0,0,-0.0158,-0.0159,0,0,0,0,0,0,0,0,0.0113,0.0105,0.004,0.0036,0.0031,-0.004,-0.0014,-0.0073,-0.0082,-0.0041,-0.0082,-0.0082,-0.0107,-0.0112,-0.0133,-0.0169,-0.0171,-0.0158,-0.0159,-0.0161,-0.0161,0,0,0,0,0,0,0,0.0118,0.0109,0.0032,0.0039,0.0034,0.0008,-0.0002,-0.0026,-0.0073,-0.0045,-0.0049,-0.0057,-0.0109,-0.0131,-0.0135,-0.0172,-0.0158,-0.016,-0.0162,-0.0163,-0.0228,-0.0228,0,0,0,0,0,0,0.0135,0.0113,0.0035,0.003,0.0074,0.0006,-0.0005,-0.0019,-0.0074,-0.0082,-0.0057,-0.0059,-0.0126,-0.0132,-0.0138,-0.0147,-0.0161,-0.0163,-0.0164,-0.0227,-0.0228,-0.0228,0,0,0,0,0,0,0.0137,0.0128,0.0039,0.0071,0.0058,0.0005,-0.0011,-0.002,-0.0039,-0.0083,-0.0091,-0.0064,-0.0127,-0.0134,-0.0152,-0.015,-0.0164,-0.0166,-0.0227,-0.0228,-0.0228,-0.0174,0,0,0,0,0,0,0.014,0.013,0.0127,0.0072,0.0057,0.0015,-0.0011,-0.0022,-0.0043,-0.0047,-0.0092,-0.0099,-0.0127,-0.0148,-0.0155,-0.0154,-0.0168,-0.0227,-0.0227,-0.0228,-0.0176,-0.0173,-0.017,0,0,0,0,0,0.0144,0.0147,0.0128,0.0118,0.0054,0.0015,0.0005,-0.0034,-0.0043,-0.005,-0.0078,-0.0097,-0.0156,-0.015,-0.0158,-0.0158,-0.0227,-0.0227,-0.0228,-0.0177,-0.0173,-0.017,0,0,0,0,0,0,0.0197,0.014,0.0118,0.0104,0.0065,0.0007,-0.0001,-0.0027,-0.0057,-0.0055,-0.0096,-0.0104,-0.0121,-0.0148,-0.0141,-0.018,-0.0196,-0.0198,-0.0155,-0.0152,-0.0149,-0.0127,-0.0171,0,0,0,0,0,0.0206,0.0192,0.0133,0.0126,0.0106,0.0054,0.0035,0.0008,-0.0027,-0.0041,-0.0072,-0.0104,-0.0131,-0.0145,-0.0173,-0.0191,-0.0218,-0.0199,-0.0196,-0.0193,-0.0182,-0.023,-0.023,-0.0229,-0.0229,-0.0229,0,0,0.023,0.0194,0.0189,0.0136,0.0102,0.0083,0.0042,0.0018,0.001,-0.0041,-0.0056,-0.0091,-0.0133,-0.0154,-0.0165,-0.0175,-0.0207,-0.0194,-0.0191,-0.0181,-0.023,-0.023,-0.023,-0.023,-0.023,-0.0229,0,0,0.0265,0.0232,0.0227,0.0195,0.0146,0.0113,0.011,0.0054,0.0035,0.0011,-0.0025,-0.0056,-0.01,-0.0131,-0.0151,-0.0148,-0.0187,-0.0163,-0.0133,-0.0179,-0.018,-0.018,-0.0206,-0.021,-0.0165,-0.0165,-0.0165,0,0.0296,0.0274,0.0223,0.0206,0.0192,0.0132,0.013,0.0099,0.0048,0.0038,0.0017,-0.0053,-0.0088,-0.0114,-0.0118,-0.014,-0.0169,-0.014,-0.0174,-0.0176,-0.0177,-0.0204,-0.0208,-0.0162,-0.0162,-0.0163,-0.0163,0,0.0322,0.0302,0.0299,0.0258,0.0238,0.0227,0.0178,0.016,0.0131,0.0096,0.0063,0.0004,-0.0036,-0.0059,-0.0088,-0.0116,-0.0134,-0.0161,-0.0178,-0.0173,-0.0203,-0.0208,-0.0159,-0.0159,-0.016,-0.0161,0,0,0.0397,0.033,0.0331,0.0318,0.0266,0.0255,0.0244,0.0213,0.0215,0.0152,0.0147,0.0079,0.004,0.0015,-0.0035,-0.0081,-0.0118,-0.0122,-0.0126,-0.0139,-0.021,-0.0197,-0.0202,-0.0157,-0.0158,-0.0159,-0.0223,0,0.0433,0.0419,0.0379,0.038,0.0368,0.0321,0.0319,0.0288,0.0253,0.0232,0.0161,0.0136,0.007,0.0053,-0.0006,-0.0084,-0.0131,-0.0097,-0.022,-0.0223,-0.0206,-0.0207,-0.0161,-0.0213,-0.0228,-0.0229,-0.023,0,0.0475,0.0454,0.0458,0.0431,0.0426,0.0423,0.0416,0.0403,0.0357,0.0332,0.028,0.0227,0.0161,0.0102,-0.0036,-0.0013,-0.0103,-0.0173,-0.0178,-0.0186,-0.0221,-0.0224,-0.0222,-0.0378,-0.0239,-0.0238,-0.0237,0,0.055,0.0518,0.0527,0.0515,0.0474,0.0479,0.0466,0.0433,0.0442,0.0394,0.0397,0.0298,0.0266,0.0131,-0.0006,-0.0028,-0.0153,-0.0203,-0.0276,-0.0276,-0.0269,-0.0266,-0.0422,-0.0302,-0.0302,-0.0301,-0.0301,0,0.0605,0.0612,0.0559,0.0561,0.0582,0.0538,0.0568,0.0539,0.0528,0.0547,0.0452,0.0458,0.027,0.018,0.0027,-0.0124,-0.013,-0.0262,-0.0292,-0.0248,-0.0243,-0.0404,-0.0488,-0.0304,-0.0303,-0.0303,-0.0302,0,0.068,0.0645,0.0646,0.0613,0.061,0.0625,0.0634,0.0657,0.0634,0.0658,0.0654,0.0581,0.047,0.029,0.0091,-0.0057,-0.0293,-0.027,-0.019,-0.021,-0.0432,-0.0513,-0.0689,-0.0748,-0.0371,-0.0371,-0.0371,0,0.0713,0.0719,0.0694,0.0701,0.0684,0.0701,0.072,0.0707,0.074,0.0742,0.0767,0.0691,0.0665,0.0396,0.0139,-0.0105,-0.0276,-0.0255,-0.0296,-0.0432,-0.0545,-0.0614,-0.0656,-0.0268,-0.0267,-0.0267,-0.0266,0,0.077,0.0761,0.0756,0.0772,0.0786,0.0817,0.0844,0.0896,0.0892,0.0935,0.0981,0.0973,0.0743,0.0546,0.0215,0.0022,-0.0344,-0.025,-0.0423,-0.0497,-0.0551,-0.0624,-0.0232,-0.026,-0.0261,-0.0261,-0.0262,-0.0262,0.0814,0.0824,0.082,0.0839,0.0864,0.0922,0.0972,0.103,0.1114,0.1192,0.117,0.1199,0.0887,0.0469,0.0196,-0.0283,-0.0305,-0.0442,-0.0533,-0.0594,-0.064,-0.0219,-0.0263,-0.0264,-0.0264,-0.0265,-0.0265,0,0.0855,0.0866,0.0889,0.0911,0.0959,0.0962,0.1049,0.1117,0.1237,0.1335,0.1404,0.1293,0.0909,0.0463,-0.0159,-0.0499,-0.0639,-0.0707,-0.081,-0.0843,-0.0495,-0.048,-0.0532,-0.0532,-0.0532,-0.0532,-0.0532,-0.0532,0.0874,0.0904,0.0908,0.098,0.1014,0.1093,0.1152,0.1262,0.1359,0.1504,0.1552,0.1567,0.1228,0.0125,-0.0639,-0.0819,-0.1077,-0.1112,-0.1259,-0.1039,-0.1021,-0.1005,-0.1012,-0.1176,-0.1177,-0.1547,-0.1551,-0.1554]}],[{"header":{"parameterUnit":"m.s-1","parameterCategory":2,"la1":30.2991,"la2":30.254,"lo1":-89.0895,"lo2":-89.0444,"dy":0.0017,"dx":0.0017,"nx":28,"ny":28,"refTime":"2025-04-25T03:00:00:Z","depth":"2","parameterNumber":2,"parameterNumberName":"U-component_of_CURRENTS"},"data":[0,0,0,0,0,0,0,0,0,0,0,0,0,0,0,0,0,0,0,0,0,0,0,0,0,0,0,0,0,0,0,0,0,0,0,0,0,0,0,0,0,0,0,0,0,0,0,0,0,0,0,0,0,0,0,0,0,0,0.2194,0.2195,0,0.2246,0.2246,0.2246,0.2248,0.2248,0.2248,0.2248,0.2317,0.2319,0.2321,0,0,0,0,0,0,0,0,0,0,0,0,0,0.2136,0.2137,0.2194,0.2195,0.2196,0.2245,0.2246,0.2246,0.2248,0.2248,0.2248,0.2248,0.2316,0.2318,0.2321,0,0,0,0,0,0,0,0,0,0,0,0,0,0.2167,0.2137,0.2194,0.2207,0.2209,0.2245,0.2246,0.2246,0.2248,0.2248,0.2248,0.2248,0.2315,0.2318,0.2321,0.2343,0,0,0.233,0.2331,0,0,0,0,0,0,0,0,0.2165,0.2168,0.2204,0.2206,0.2209,0.2245,0.2251,0.2281,0.2248,0.2228,0.2248,0.2247,0.2298,0.2302,0.2305,0.2347,0.235,0.233,0.2332,0.2334,0.2334,0,0,0,0,0,0,0,0.2163,0.2166,0.2209,0.2206,0.2208,0.2224,0.2227,0.2256,0.226,0.223,0.2231,0.2245,0.2299,0.2302,0.2307,0.2351,0.233,0.2333,0.2335,0.2336,0.2421,0.2421,0,0,0,0,0,0,0.2165,0.2164,0.2208,0.2211,0.2192,0.2226,0.2229,0.2229,0.2259,0.2265,0.2245,0.2245,0.2297,0.2303,0.2309,0.2371,0.2333,0.2336,0.2338,0.242,0.2421,0.2421,0,0,0,0,0,0,0.2163,0.2168,0.2206,0.2194,0.22,0.2227,0.2227,0.223,0.2252,0.2272,0.2277,0.2266,0.2297,0.2305,0.2372,0.2373,0.2338,0.234,0.242,0.242,0.2421,0.2474,0,0,0,0,0,0,0.2161,0.2167,0.2177,0.2194,0.2201,0.2262,0.2228,0.2232,0.2262,0.2263,0.2291,0.2296,0.2297,0.2368,0.2375,0.2376,0.2343,0.2419,0.242,0.2421,0.2472,0.2477,0.2481,0,0,0,0,0,0.2159,0.2167,0.2177,0.2183,0.2211,0.2265,0.2271,0.2285,0.2264,0.2297,0.2315,0.2296,0.2376,0.2373,0.2381,0.2382,0.2419,0.242,0.2421,0.247,0.2476,0.2481,0,0,0,0,0,0,0.2149,0.217,0.218,0.2195,0.2248,0.2268,0.2284,0.2298,0.2334,0.2329,0.2333,0.2342,0.239,0.2386,0.2381,0.2405,0.2382,0.2385,0.2416,0.2422,0.2426,0.2429,0.2345,0,0,0,0,0,0.2154,0.2165,0.2205,0.2226,0.224,0.2266,0.2288,0.231,0.234,0.2353,0.2382,0.239,0.2396,0.2413,0.2433,0.2468,0.2479,0.2462,0.2467,0.2471,0.2477,0.2496,0.2504,0.2425,0.2425,0.2425,0,0,0.2156,0.2172,0.2179,0.2226,0.2245,0.2294,0.2277,0.2322,0.2362,0.2357,0.2418,0.2425,0.2413,0.2447,0.2464,0.2448,0.2505,0.2472,0.2476,0.248,0.2498,0.2506,0.2513,0.2425,0.2425,0.2425,0,0,0.2166,0.2177,0.2189,0.223,0.2284,0.2322,0.2343,0.2393,0.2407,0.2476,0.246,0.2483,0.2516,0.2508,0.2497,0.254,0.2533,0.2527,0.2553,0.2572,0.2579,0.2585,0.264,0.265,0.2523,0.2523,0.2523,0,0.2168,0.2188,0.2211,0.224,0.2279,0.2337,0.2383,0.2413,0.2492,0.25,0.2505,0.2534,0.2535,0.254,0.2547,0.255,0.2573,0.2535,0.2579,0.2585,0.2591,0.2645,0.2656,0.2526,0.2525,0.2525,0.2525,0,0.2192,0.2214,0.2223,0.2283,0.2344,0.2391,0.2453,0.2508,0.2536,0.2561,0.2593,0.2606,0.2614,0.2604,0.2589,0.2611,0.2622,0.259,0.2569,0.2602,0.2657,0.2668,0.2529,0.2528,0.2528,0.2527,0,0,0.218,0.2225,0.2235,0.2265,0.2366,0.2422,0.2488,0.2559,0.2581,0.2642,0.2664,0.2668,0.2669,0.2658,0.2642,0.2654,0.2719,0.264,0.264,0.2703,0.2797,0.2806,0.2818,0.2696,0.2697,0.2698,0.2832,0,0.2193,0.2229,0.2278,0.2365,0.239,0.2471,0.2526,0.26,0.2646,0.2694,0.2683,0.2705,0.2686,0.2687,0.2702,0.2713,0.2744,0.2688,0.2748,0.2751,0.276,0.2829,0.2542,0.2636,0.2842,0.2844,0.2845,0,0.2201,0.2229,0.2277,0.2368,0.239,0.2473,0.2577,0.2633,0.2691,0.271,0.2738,0.2747,0.2781,0.2749,0.2812,0.278,0.2798,0.2807,0.2811,0.2805,0.2778,0.2629,0.2647,0.2863,0.2861,0.286,0.2859,0,0.2163,0.224,0.2276,0.2307,0.2417,0.2468,0.2549,0.2628,0.2667,0.2725,0.2766,0.2798,0.2832,0.2854,0.2901,0.2855,0.2984,0.2915,0.2949,0.2951,0.2711,0.2689,0.2961,0.2961,0.2961,0.296,0.296,0,0.2144,0.2181,0.2257,0.228,0.2353,0.2441,0.252,0.2585,0.2669,0.2713,0.2769,0.2825,0.2858,0.2938,0.2947,0.3017,0.303,0.2982,0.2987,0.2726,0.2705,0.2887,0.2877,0.2965,0.2964,0.2963,0.2963,0,0.2089,0.2122,0.217,0.228,0.2324,0.2374,0.2522,0.2558,0.2652,0.2721,0.2746,0.287,0.2979,0.3049,0.3112,0.309,0.3136,0.3153,0.2877,0.2847,0.3076,0.3066,0.3184,0.3186,0.3187,0.3188,0.3189,0,0.2054,0.2061,0.2161,0.2193,0.2251,0.2339,0.239,0.2518,0.256,0.2743,0.2764,0.2931,0.2978,0.3137,0.313,0.3181,0.3243,0.2976,0.2819,0.3107,0.31,0.3088,0.3077,0.253,0.2525,0.2522,0.2519,0,0.201,0.2036,0.2081,0.2125,0.2191,0.2265,0.2357,0.239,0.252,0.2605,0.273,0.2794,0.2942,0.2866,0.2973,0.2959,0.2939,0.2905,0.3265,0.2534,0.2504,0.2493,0.25,0.2485,0.2488,0.2491,0.2493,0.2494,0.1977,0.1995,0.2034,0.2066,0.2119,0.2163,0.2191,0.2268,0.2334,0.2402,0.2562,0.2575,0.2623,0.262,0.2603,0.2627,0.2805,0.2673,0.2677,0.2687,0.2603,0.2579,0.256,0.2564,0.2567,0.257,0.2572,0,0.1933,0.1956,0.1982,0.2,0.1983,0.2071,0.2139,0.213,0.214,0.2207,0.2266,0.2111,0.2075,0.2187,0.2126,0.2163,0.2058,0.213,0.1939,0.1976,0.2008,0.1881,0.1651,0.1649,0.1646,0.1644,0,0,0.1918,0.1912,0.1908,0.1839,0.1857,0.1842,0.1863,0.1865,0.1893,0.1839,0.1811,0.1925,0.2049,0.178,0.1791,0.1708,0.1816,0.1652,0.2389,0.2195,0.2223,0.2327,0.2177,0,0,0,0,0]},{"header":{"parameterUnit":"m.s-1","parameterCategory":2,"la1":30.2991,"la2":30.254,"lo1":-89.0895,"lo2":-89.0444,"dy":0.0017,"dx":0.0017,"nx":28,"ny":28,"refTime":"2025-04-25T03:00:00:Z","depth":"2","parameterNumber":3,"parameterNumberName":"V-component_of_CURRENTS"},"data":[0,0,0,0,0,0,0,0,0,0,0,0,0,0,0,0,0,0,0,0,0,0,0,0,0,0,0,0,0,0,0,0,0,0,0,0,0,0,0,0,0,0,0,0,0,0,0,0,0,0,0,0,0,0,0,0,0,0,-0.0086,-0.0086,0,-0.0153,-0.0153,-0.0154,-0.0192,-0.0192,-0.0192,-0.0193,-0.0281,-0.0283,-0.0285,0,0,0,0,0,0,0,0,0,0,0,0,0,-0.0002,-0.0004,-0.0085,-0.0086,-0.0087,-0.0152,-0.0153,-0.0154,-0.0192,-0.0192,-0.0193,-0.0193,-0.028,-0.0283,-0.0286,0,0,0,0,0,0,0,0,0,0,0,0,0,-0.005,-0.0004,-0.0085,-0.0114,-0.0118,-0.0152,-0.0153,-0.0154,-0.0192,-0.0192,-0.0193,-0.0193,-0.0279,-0.0283,-0.0286,-0.0301,0,0,-0.0296,-0.0297,0,0,0,0,0,0,0,0,-0.0048,-0.0053,-0.0109,-0.0112,-0.0116,-0.0165,-0.0157,-0.0205,-0.0192,-0.0163,-0.0193,-0.0193,-0.0244,-0.025,-0.0262,-0.0305,-0.0309,-0.0296,-0.0298,-0.03,-0.0301,0,0,0,0,0,0,0,-0.0044,-0.0051,-0.0112,-0.011,-0.0114,-0.0128,-0.0135,-0.0166,-0.0202,-0.0166,-0.0169,-0.0177,-0.0246,-0.0258,-0.0264,-0.031,-0.0296,-0.0299,-0.0301,-0.0302,-0.0389,-0.039,0,0,0,0,0,0,-0.0036,-0.0048,-0.011,-0.0114,-0.0082,-0.0129,-0.0137,-0.0148,-0.0201,-0.0209,-0.0177,-0.0178,-0.0252,-0.026,-0.0267,-0.0289,-0.03,-0.0303,-0.0305,-0.0389,-0.039,-0.039,0,0,0,0,0,0,-0.0034,-0.0041,-0.0107,-0.0082,-0.0092,-0.0131,-0.0143,-0.015,-0.0163,-0.0209,-0.0218,-0.0184,-0.0253,-0.0263,-0.0295,-0.0292,-0.0304,-0.0307,-0.0389,-0.0389,-0.039,-0.0332,0,0,0,0,0,0,-0.0032,-0.004,-0.0043,-0.0082,-0.0093,-0.013,-0.0143,-0.0151,-0.0168,-0.0171,-0.0218,-0.0226,-0.0254,-0.029,-0.0298,-0.0297,-0.031,-0.0388,-0.0389,-0.039,-0.0333,-0.033,-0.0328,0,0,0,0,0,-0.0028,-0.0028,-0.0043,-0.005,-0.0096,-0.0131,-0.0138,-0.0166,-0.0168,-0.0178,-0.0205,-0.0225,-0.03,-0.0293,-0.0302,-0.0302,-0.0388,-0.0389,-0.0389,-0.0335,-0.0331,-0.0328,0,0,0,0,0,0,0.001,-0.0033,-0.005,-0.0062,-0.0097,-0.0137,-0.0142,-0.0162,-0.0191,-0.0188,-0.0228,-0.0239,-0.0265,-0.0295,-0.0286,-0.0331,-0.0348,-0.0351,-0.0303,-0.03,-0.0297,-0.0272,-0.0313,0,0,0,0,0,0.0016,0.0004,-0.0043,-0.0051,-0.0066,-0.0103,-0.0118,-0.0138,-0.0169,-0.0181,-0.0213,-0.0246,-0.0276,-0.0296,-0.0327,-0.0352,-0.0378,-0.0361,-0.0358,-0.0355,-0.0343,-0.039,-0.039,-0.0392,-0.0392,-0.0392,0,0,0.003,0.0005,-0.0001,-0.0044,-0.0067,-0.0079,-0.0112,-0.0132,-0.0136,-0.0186,-0.0197,-0.0235,-0.028,-0.0306,-0.0321,-0.0331,-0.0367,-0.0356,-0.0353,-0.0343,-0.0391,-0.039,-0.039,-0.0393,-0.0393,-0.0393,0,0,0.0055,0.0029,0.0027,0.0002,-0.0035,-0.0057,-0.0061,-0.0103,-0.0118,-0.0141,-0.0173,-0.0209,-0.0257,-0.0288,-0.0309,-0.0312,-0.0348,-0.0327,-0.0296,-0.0341,-0.0341,-0.0341,-0.0364,-0.0367,-0.0329,-0.0329,-0.0329,0,0.0075,0.0063,0.0021,0.0014,0.0007,-0.0042,-0.0039,-0.0063,-0.0108,-0.0116,-0.0137,-0.0205,-0.0245,-0.0273,-0.0276,-0.0303,-0.033,-0.0301,-0.0336,-0.0337,-0.0338,-0.0362,-0.0365,-0.0326,-0.0327,-0.0327,-0.0327,0,0.0094,0.0086,0.0086,0.0063,0.005,0.0042,0.0007,-0.0006,-0.0028,-0.0057,-0.0092,-0.0153,-0.0193,-0.0218,-0.0248,-0.0276,-0.0292,-0.0322,-0.0338,-0.0333,-0.036,-0.0364,-0.0322,-0.0323,-0.0324,-0.0325,0,0,0.0141,0.0105,0.0106,0.0111,0.0077,0.0073,0.007,0.0049,0.0057,-0.0003,-0.0006,-0.0076,-0.0115,-0.0142,-0.0193,-0.0238,-0.0271,-0.028,-0.0284,-0.0291,-0.0359,-0.0344,-0.0348,-0.0312,-0.0313,-0.0313,-0.037,0,0.0171,0.0169,0.0148,0.0169,0.017,0.014,0.0147,0.0125,0.0096,0.0079,0.0006,-0.0019,-0.0085,-0.0103,-0.016,-0.0239,-0.0283,-0.0252,-0.0373,-0.0375,-0.0353,-0.0353,-0.0315,-0.036,-0.0375,-0.0376,-0.0376,0,0.0201,0.0197,0.0209,0.0225,0.0226,0.0238,0.025,0.0244,0.0204,0.018,0.0128,0.0074,0.0007,-0.0052,-0.0186,-0.0165,-0.0253,-0.0322,-0.0326,-0.0333,-0.037,-0.0371,-0.0369,-0.0385,-0.0384,-0.0384,-0.0383,0,0.0252,0.0253,0.0267,0.0266,0.0265,0.0286,0.0294,0.0274,0.0289,0.0242,0.0246,0.0146,0.0112,-0.0019,-0.0153,-0.0176,-0.0296,-0.0347,-0.0416,-0.0416,-0.0415,-0.0413,-0.0443,-0.0443,-0.0443,-0.0443,-0.0442,0,0.029,0.0311,0.0294,0.0304,0.0353,0.0337,0.0386,0.0375,0.0373,0.0396,0.03,0.0305,0.0117,0.0028,-0.0119,-0.0264,-0.0272,-0.04,-0.043,-0.0393,-0.0389,-0.044,-0.0439,-0.0445,-0.0444,-0.0444,-0.0443,0,0.0337,0.0317,0.0344,0.0355,0.0373,0.0404,0.0461,0.0491,0.0478,0.0506,0.05,0.0427,0.0317,0.0139,-0.0056,-0.0198,-0.0351,-0.0403,-0.033,-0.0351,-0.0452,-0.0448,-0.0496,-0.0496,-0.0496,-0.0496,-0.0496,0,0.0357,0.0365,0.0388,0.0419,0.0429,0.0479,0.0521,0.0536,0.0573,0.0588,0.061,0.0535,0.0486,0.0225,-0.0019,-0.0256,-0.0309,-0.0387,-0.0431,-0.0434,-0.0459,-0.0454,-0.045,-0.041,-0.0409,-0.0408,-0.0408,0,0.0397,0.0395,0.0414,0.047,0.0519,0.0587,0.065,0.0699,0.0715,0.0757,0.0799,0.0771,0.054,0.032,0.0003,-0.0158,-0.0349,-0.0382,-0.0411,-0.0394,-0.0356,-0.0379,-0.0377,-0.0403,-0.0403,-0.0404,-0.0404,-0.0404,0.0433,0.0449,0.0467,0.0525,0.0586,0.0677,0.0747,0.0817,0.0899,0.0951,0.0927,0.0887,0.0632,0.0243,-0.0014,-0.0284,-0.0297,-0.0418,-0.0419,-0.0421,-0.0393,-0.0356,-0.0397,-0.0397,-0.0397,-0.0398,-0.0398,0,0.0468,0.0485,0.0531,0.0589,0.0655,0.07,0.082,0.0888,0.099,0.1031,0.106,0.0833,0.0588,0.0309,-0.0084,-0.0335,-0.0362,-0.0408,-0.0396,-0.0399,-0.0402,-0.0373,-0.0371,-0.0372,-0.0373,-0.0373,0,0,0.0487,0.0518,0.0526,0.0621,0.0687,0.08,0.088,0.0986,0.1049,0.1098,0.1078,0.1007,0.0667,0.0384,0.0063,-0.0154,-0.0222,-0.0193,-0.0187,-0.0137,-0.0137,-0.0378,-0.0332,0,0,0,0,0]}],[{"header":{"parameterUnit":"m.s-1","parameterCategory":2,"la1":30.2991,"la2":30.254,"lo1":-89.0895,"lo2":-89.0444,"dy":0.0017,"dx":0.0017,"nx":28,"ny":28,"refTime":"2025-04-25T03:00:00:Z","depth":"4","parameterNumber":2,"parameterNumberName":"U-component_of_CURRENTS"},"data":[0,0,0,0,0,0,0,0,0,0,0,0,0,0,0,0,0,0,0,0,0,0,0,0,0,0,0,0,0,0,0,0,0,0,0,0,0,0,0,0,0,0,0,0,0,0,0,0,0,0,0,0,0,0,0,0,0,0,0.1298,0.1298,0,0.1275,0.1275,0.1274,0.1291,0.1292,0.1293,0.1294,0.132,0.132,0.1319,0,0,0,0,0,0,0,0,0,0,0,0,0,0.127,0.1271,0.1298,0.1298,0.1297,0.1275,0.1275,0.1274,0.1291,0.1292,0.1293,0.1294,0.132,0.132,0.1319,0,0,0,0,0,0,0,0,0,0,0,0,0,0.1267,0.1271,0.1298,0.1304,0.1305,0.1275,0.1275,0.1274,0.1291,0.1292,0.1293,0.1295,0.132,0.132,0.1319,0.1292,0,0,0.1319,0.1319,0,0,0,0,0,0,0,0,0.1267,0.1268,0.1303,0.1304,0.1304,0.1289,0.1275,0.1283,0.129,0.1294,0.1294,0.1295,0.1314,0.1314,0.1304,0.1293,0.1294,0.1319,0.1319,0.1319,0.1319,0,0,0,0,0,0,0,0.1268,0.1268,0.1287,0.1303,0.1304,0.1279,0.1281,0.1276,0.1297,0.1294,0.1296,0.1295,0.1315,0.1304,0.1305,0.1295,0.1319,0.1319,0.1319,0.1319,0.1385,0.1387,0,0,0,0,0,0,0.1277,0.1269,0.1288,0.1287,0.129,0.1279,0.1281,0.1291,0.1296,0.1298,0.1294,0.1296,0.1304,0.1305,0.1306,0.1363,0.1319,0.1319,0.1318,0.1383,0.1385,0.1387,0,0,0,0,0,0,0.1276,0.1279,0.1289,0.1278,0.1278,0.1279,0.129,0.129,0.131,0.1296,0.1299,0.1318,0.1305,0.1306,0.1332,0.1361,0.1318,0.1318,0.1381,0.1384,0.1386,0.1421,0,0,0,0,0,0,0.1276,0.1279,0.1298,0.1279,0.1279,0.1268,0.1289,0.1289,0.1307,0.131,0.1316,0.1318,0.1306,0.1332,0.1331,0.136,0.1318,0.1379,0.1382,0.1386,0.1417,0.1425,0.1431,0,0,0,0,0,0.1275,0.1291,0.1299,0.1302,0.1302,0.1267,0.1264,0.1268,0.1307,0.1296,0.1328,0.1319,0.1355,0.1333,0.1332,0.1361,0.1377,0.1381,0.1385,0.1414,0.1423,0.1431,0,0,0,0,0,0,0.1285,0.1294,0.1303,0.1321,0.1295,0.1271,0.1281,0.1285,0.13,0.1335,0.1329,0.1332,0.137,0.1363,0.1339,0.1396,0.137,0.1374,0.1393,0.1401,0.1407,0.1445,0.1318,0,0,0,0,0,0.1297,0.1317,0.13,0.1312,0.1314,0.1306,0.1304,0.1306,0.1312,0.1322,0.1323,0.1351,0.138,0.1389,0.1399,0.1417,0.1421,0.1443,0.1449,0.1455,0.1488,0.1509,0.152,0.1401,0.1401,0.1401,0,0,0.1302,0.1311,0.1323,0.1316,0.1315,0.13,0.1309,0.1316,0.1325,0.1323,0.1353,0.1371,0.1392,0.1419,0.1437,0.142,0.1488,0.146,0.1464,0.1495,0.1515,0.1526,0.1536,0.1404,0.1404,0.1403,0,0,0.1311,0.1338,0.1355,0.1341,0.1344,0.1323,0.1333,0.1322,0.135,0.1378,0.1392,0.1427,0.1456,0.1462,0.1481,0.1531,0.1525,0.1545,0.1602,0.1621,0.1631,0.164,0.1639,0.1648,0.1544,0.1544,0.1544,0,0.1318,0.1339,0.1345,0.135,0.1348,0.1339,0.1339,0.135,0.1347,0.1385,0.1405,0.1475,0.1483,0.1525,0.1562,0.1545,0.1558,0.1562,0.1628,0.1637,0.1646,0.1644,0.1653,0.1546,0.1546,0.1546,0.1546,0,0.1325,0.1348,0.1357,0.1361,0.1349,0.135,0.1356,0.1363,0.1412,0.1438,0.1515,0.153,0.1572,0.1584,0.1606,0.1666,0.1656,0.1632,0.1603,0.1659,0.1654,0.1662,0.155,0.1549,0.1548,0.1548,0,0,0.1313,0.1357,0.1357,0.1371,0.1367,0.135,0.1379,0.1396,0.1435,0.1485,0.155,0.1624,0.1654,0.1679,0.1681,0.172,0.1785,0.1727,0.1727,0.1718,0.1832,0.172,0.1718,0.178,0.1782,0.1784,0.1796,0,0.1313,0.1334,0.1351,0.1352,0.1361,0.1368,0.1383,0.1412,0.1462,0.1511,0.1595,0.166,0.1682,0.1718,0.1761,0.1784,0.1816,0.1784,0.1789,0.1789,0.1675,0.1727,0.1791,0.1803,0.1805,0.1806,0.1807,0,0.1303,0.1323,0.1344,0.1372,0.1379,0.1376,0.14,0.1422,0.1498,0.1555,0.1636,0.1695,0.1778,0.1787,0.1862,0.1849,0.1868,0.1881,0.1879,0.1778,0.1694,0.1741,0.1822,0.1821,0.182,0.1819,0.1818,0,0.1277,0.1309,0.1332,0.1338,0.1362,0.1389,0.1403,0.1454,0.1498,0.1592,0.1641,0.1733,0.1792,0.1846,0.1901,0.1898,0.1972,0.1939,0.1845,0.1835,0.1915,0.1905,0.1998,0.1998,0.1998,0.1998,0.1998,0,0.1254,0.1271,0.1332,0.134,0.1363,0.1399,0.1437,0.1461,0.1536,0.1584,0.1675,0.1708,0.1827,0.1881,0.1915,0.1907,0.197,0.188,0.1843,0.1925,0.1918,0.1919,0.1909,0.1999,0.1998,0.1998,0.1998,0,0.1212,0.1255,0.1283,0.1337,0.1356,0.1378,0.1444,0.1466,0.1543,0.16,0.1645,0.1732,0.1788,0.1862,0.1933,0.1901,0.191,0.1885,0.1972,0.1936,0.1756,0.1749,0.1781,0.1777,0.1774,0.1771,0.1769,0,0.1187,0.1206,0.1271,0.1286,0.1318,0.1364,0.1382,0.1459,0.1489,0.1584,0.1604,0.1699,0.1745,0.1738,0.1821,0.1849,0.1839,0.1827,0.1814,0.1779,0.174,0.1738,0.1734,0.1764,0.1764,0.1763,0.1762,0,0.1136,0.1177,0.1201,0.1241,0.1271,0.1286,0.1341,0.1348,0.1431,0.1524,0.1533,0.1569,0.1614,0.1662,0.1699,0.1716,0.183,0.1795,0.1801,0.1789,0.176,0.1723,0.1724,0.1751,0.1753,0.1754,0.1755,0,0.11,0.1104,0.1151,0.1171,0.1209,0.1196,0.1223,0.1254,0.1292,0.1412,0.1407,0.1486,0.1583,0.159,0.1618,0.1636,0.1624,0.1588,0.1605,0.1617,0.1563,0.1503,0.1402,0,0,0,0,0,0.1053,0.1051,0.107,0.108,0.1118,0.1138,0.1184,0.1217,0.1306,0.1282,0.1347,0.138,0.1416,0.1456,0.1447,0.1555,0.1632,0.1539,0.1599,0.1693,0.1705,0.166,0,0,0,0,0,0,0.1023,0.1041,0.1042,0.1006,0.1004,0.1019,0.1042,0.1092,0.1092,0.1195,0.1219,0.1321,0.1374,0.1418,0.1429,0.1448,0.1464,0.161,0.1607,0.1686,0.1697,0.1707,0.1665,0,0,0,0,0]},{"header":{"parameterUnit":"m.s-1","parameterCategory":2,"la1":30.2991,"la2":30.254,"lo1":-89.0895,"lo2":-89.0444,"dy":0.0017,"dx":0.0017,"nx":28,"ny":28,"refTime":"2025-04-25T03:00:00:Z","depth":"4","parameterNumber":3,"parameterNumberName":"V-component_of_CURRENTS"},"data":[0,0,0,0,0,0,0,0,0,0,0,0,0,0,0,0,0,0,0,0,0,0,0,0,0,0,0,0,0,0,0,0,0,0,0,0,0,0,0,0,0,0,0,0,0,0,0,0,0,0,0,0,0,0,0,0,0,0,-0.0003,-0.0003,0,-0.0009,-0.0009,-0.0009,-0.0026,-0.0026,-0.0026,-0.0027,-0.0006,-0.0005,-0.0004,0,0,0,0,0,0,0,0,0,0,0,0,0,0.0021,0.002,-0.0003,-0.0003,-0.0003,-0.0009,-0.0009,-0.0009,-0.0025,-0.0026,-0.0026,-0.0027,-0.0007,-0.0005,-0.0004,0,0,0,0,0,0,0,0,0,0,0,0,0,0.0013,0.002,-0.0003,-0.0013,-0.0014,-0.0009,-0.0009,-0.0009,-0.0025,-0.0026,-0.0027,-0.0027,-0.0007,-0.0006,-0.0004,0.0017,0,0,0.0,0.0001,0,0,0,0,0,0,0,0,0.0013,0.0012,-0.0011,-0.0012,-0.0013,-0.0018,0.0006,0.0,-0.0025,-0.002,-0.0027,-0.0027,-0.0008,-0.0006,-0.0005,0.0018,0.0019,0.0,0.0001,0.0002,0.0002,0,0,0,0,0,0,0,0.0014,0.0012,-0.0005,-0.0011,-0.0012,-0.0008,-0.001,0.0005,-0.0009,-0.002,-0.0022,-0.0024,-0.0008,-0.0007,-0.0005,0.0019,0.0,0.0001,0.0002,0.0003,0.0041,0.0041,0,0,0,0,0,0,0.0012,0.0013,-0.0004,-0.0005,-0.0002,-0.0008,-0.001,-0.0015,-0.001,-0.001,-0.0023,-0.0024,-0.0009,-0.0007,-0.0004,0.0024,0.0002,0.0003,0.0004,0.0041,0.0041,0.0041,0,0,0,0,0,0,0.0013,0.0011,-0.0004,0.0003,0.0002,-0.0008,-0.0013,-0.0015,-0.0013,-0.0012,-0.0012,-0.002,-0.0009,-0.0006,0.0012,0.0024,0.0004,0.0005,0.004,0.0041,0.0041,0.0078,0,0,0,0,0,0,0.0013,0.0011,0.001,0.0003,0.0001,0.0009,-0.0013,-0.0015,-0.0014,-0.0016,-0.0009,-0.0009,-0.0009,0.001,0.0013,0.0026,0.0006,0.004,0.004,0.0041,0.0077,0.008,0.0082,0,0,0,0,0,0.0014,0.0016,0.001,0.0008,-0.0001,0.0009,0.001,0.0001,-0.0013,-0.0002,-0.0005,-0.0009,0.0013,0.0012,0.0015,0.0029,0.004,0.004,0.0041,0.0075,0.0079,0.0082,0,0,0,0,0,0,0.0026,0.0014,0.0008,0.0005,0.0012,0.0007,0.001,0.0005,0.0011,0.0004,0.0003,0.0005,0.0022,0.002,0.0017,0.0037,0.0023,0.0024,0.0048,0.0051,0.0054,0.005,0.0007,0,0,0,0,0,0.0029,0.0026,0.0021,0.0023,0.0022,0.0017,0.0019,0.0015,0.0016,0.0017,0.0021,0.002,0.0028,0.0034,0.004,0.006,0.0036,0.0067,0.0069,0.0072,0.007,0.0044,0.0044,0.0042,0.0042,0.0042,0,0,0.0033,0.0027,0.0025,0.0026,0.0024,0.0037,0.0017,0.0021,0.0034,0.002,0.0037,0.0034,0.0034,0.0052,0.0059,0.0052,0.0059,0.0072,0.0075,0.0071,0.0045,0.0045,0.0045,0.0042,0.0042,0.0042,0,0,0.0046,0.0036,0.0039,0.0045,0.0046,0.005,0.0054,0.0053,0.0052,0.0067,0.0057,0.0061,0.0074,0.0077,0.0079,0.0101,0.0074,0.01,0.0116,0.0091,0.0091,0.0091,0.0057,0.0053,0.0102,0.0102,0.0102,0,0.0052,0.0055,0.0046,0.0054,0.0063,0.0059,0.0075,0.0079,0.0086,0.0087,0.0074,0.008,0.0084,0.0102,0.0107,0.0109,0.0083,0.0107,0.0095,0.0094,0.0093,0.0058,0.0054,0.0104,0.0104,0.0104,0.0104,0,0.0068,0.0074,0.0078,0.0089,0.0102,0.0115,0.012,0.0131,0.0125,0.0123,0.0128,0.0125,0.0125,0.0128,0.0127,0.0128,0.0107,0.0102,0.0088,0.0096,0.0058,0.0053,0.0107,0.0106,0.0105,0.0105,0,0,0.0079,0.0086,0.0089,0.0103,0.0119,0.0135,0.0155,0.0173,0.0185,0.0175,0.0179,0.0184,0.0166,0.0167,0.0162,0.0143,0.0118,0.0121,0.0119,0.0089,0.005,0.0032,0.0024,0.0107,0.0107,0.0106,0.0025,0,0.0098,0.0119,0.0122,0.0159,0.0174,0.018,0.0206,0.0219,0.0221,0.0226,0.0201,0.0208,0.0187,0.0188,0.0164,0.0135,0.0105,0.0139,0.0045,0.0042,0.0026,0.0018,0.0104,0.0021,0.0019,0.0018,0.0018,0,0.0117,0.013,0.0159,0.0194,0.0201,0.0228,0.0264,0.0284,0.0287,0.0282,0.0266,0.0245,0.0225,0.02,0.0131,0.0151,0.01,0.0067,0.0062,0.0028,0.0014,0.0011,0.0007,0.0008,0.0009,0.001,0.001,0,0.0135,0.0163,0.0189,0.0199,0.0234,0.0253,0.0279,0.0299,0.032,0.0315,0.0319,0.0278,0.0262,0.0192,0.0117,0.0122,0.0026,0.0025,-0.0045,-0.0048,-0.0023,-0.0022,-0.0037,-0.0037,-0.0037,-0.0037,-0.0037,0,0.0157,0.0181,0.0199,0.0214,0.026,0.0274,0.0321,0.0338,0.0357,0.0385,0.0347,0.0347,0.0258,0.0194,0.0117,0.0014,0.002,-0.005,-0.007,-0.0006,-0.0002,-0.0027,-0.0025,-0.004,-0.0039,-0.0039,-0.0038,0,0.0173,0.0182,0.0215,0.0249,0.0268,0.0299,0.0356,0.0388,0.0402,0.0433,0.0432,0.0392,0.0304,0.0202,0.0087,0.0022,-0.0074,-0.0114,-0.0049,-0.0062,-0.0134,-0.0129,-0.0201,-0.0202,-0.0203,-0.0204,-0.0205,0,0.0183,0.0197,0.0238,0.0265,0.0284,0.0331,0.0373,0.0408,0.0445,0.0462,0.0478,0.0405,0.0359,0.0181,0.0068,-0.0099,-0.0118,-0.017,-0.0146,-0.0139,-0.0151,-0.0144,-0.0138,-0.0207,-0.0207,-0.0207,-0.0207,0,0.02,0.0209,0.0233,0.0285,0.0331,0.0387,0.0446,0.0473,0.0515,0.0524,0.0516,0.0427,0.0321,0.0179,0.0042,-0.0071,-0.0135,-0.0182,-0.018,-0.0158,-0.0147,-0.0156,-0.0149,-0.0211,-0.0211,-0.021,-0.021,0,0.0214,0.0228,0.0255,0.0306,0.0365,0.0427,0.0457,0.0501,0.0534,0.0555,0.0545,0.0438,0.0378,0.0192,0.0071,-0.0052,-0.0078,-0.0102,-0.0105,-0.0102,-0.0049,-0.002,-0.0067,0,0,0,0,0,0.0224,0.0236,0.0279,0.0332,0.0393,0.0432,0.0503,0.0529,0.0563,0.0566,0.0561,0.0464,0.0286,0.0208,0.008,0.0035,-0.0112,-0.0118,-0.0143,-0.0233,-0.0228,-0.0184,0,0,0,0,0,0,0.0229,0.0257,0.0272,0.0348,0.0391,0.0465,0.0512,0.054,0.0542,0.0555,0.0459,0.0431,0.0249,0.0352,0.0075,0.0038,0.0006,-0.02,-0.0202,-0.0235,-0.0231,-0.0228,-0.018,0,0,0,0,0]}]]